User: anonymous   Login
Location: Unspecified
(0.0000°N, 0.0000°E)
Time: 10:05:05
(UTC+00:00)
Language:

AEROCUBE 6A - Orbit

View from above orbital plane
View from above orbital plane
View from above satellite
View from above satellite

Ground track
Ground track

The orbit data is extracted from the following two-line orbital elements,

1 40045U 14033AM  21016.87686555  .00000296  00000-0  49311-4 0  9993
2 40045  97.7097 235.0609 0058360  20.2138 340.1364 14.75717009353583
Epoch (UTC): 16 January 2021 21:02:41
Eccentricity: 0.0058360
inclination: 97.7097°
perigee height: 602 km
apogee height: 684 km
right ascension of ascending node: 235.0609°
argument of perigee: 20.2138°
revolutions per day: 14.75717009
mean anomaly at epoch: 340.1364°
orbit number at epoch: 35358

The dashed part of the orbit path shows where the satellite is in the earth's shadow,  

DLR